Temp
18 18 18 19 19 20 20 21 21 22 23 23 24 25 26 26 27 27 28 29 28 29 28 27 27 29 30 31 33 34 33 33 33 32 31 31 30 28 26 25 24 23 19 17 17
17 18 18 18 19 19 20 20 21 22 22 23 24 25 25 26 27 28 29 29 29 29 29 30 31 32 33 34 31 32 34 33 34 33 32 32 30 28 26 24 22 21 18 18 17
17 18 18 18 19 19 19 20 21 21 22 23 23 24 25 26 27 30 29 29 29 29 29 29 31 32 34 36 26 34 34 34 33 33 32 31 30 31 28 25 22 20 19 18 18
16 17 18 18 19 19 20 20 20 21 22 22 23 24 24 25 29 29 29 29 29 29 29 29 31 33 35 36 35 34 34 33 33 32 32 31 31 29 28 25 22 20 19 19 19
15 16 17 18 18 19 20 20 21 21 21 22 22 23 24 24 27 29 29 29 29 30 29 30 32 34 35 36 35 35 34 33 33 32 31 31 29 28 26 24 22 20 20 19 18
14 15 16 17 18 19 19 20 20 21 21 22 22 22 23 25 29 29 29 29 29 29 29 31 32 34 35 33 32 33 34 33 32 32 31 30 29 27 25 24 21 20 20 20 19
14 15 15 16 17 18 19 20 20 21 21 22 22 22 21 25 29 30 29 29 30 30 31 31 33 33 35 36 32 32 34 33 33 33 32 32 30 27 25 24 22 21 21 20 20
13 14 15 15 16 17 18 19 20 21 21 21 22 21 22 26 27 28 29 29 30 31 31 32 32 33 34 32 31 26 26 28 34 34 33 33 28 28 26 24 24 22 21 21 21
12 13 14 15 15 16 18 19 20 21 21 21 22 22 25 27 27 28 29 30 30 31 31 31 32 32 33 31 26 20 21 24 30 35 34 34 30 29 27 26 25 23 22 21 21
11 12 14 14 15 16 18 19 20 21 21 21 21 22 25 28 28 28 29 30 31 31 31 31 32 33 35 34 26 24 24 26 27 34 35 34 32 30 29 29 27 25 24 24 23
10 11 13 14 15 15 18 20 20 19 19 24 26 25 28 28 30 29 29 30 30 32 32 32 32 32 34 33 27 29 31 30 33 36 34 29 32 31 31 31 29 28 26 26 25
10 11 12 14 15 16 17 17 20 19 21 23 23 26 27 29 30 30 30 30 31 32 33 33 32 34 36 36 31 31 30 34 35 36 35 34 33 32 32 32 31 30 28 27 26
9 10 11 13 15 15 16 18 18 19 21 24 25 26 27 28 29 30 30 31 32 32 33 32 34 35 36 35 35 35 36 35 35 35 36 36 34 33 33 33 32 31 30 29 28
8 9 10 12 14 15 16 17 18 19 21 26 28 27 28 28 30 30 30 31 32 32 33 33 35 35 35 35 36 35 36 36 36 35 34 36 33 33 33 33 33 32 31 30 29
7 7 9 9 11 13 15 15 17 19 21 31 30 29 28 29 30 30 31 31 32 32 33 33 34 35 35 36 36 35 37 36 36 35 35 35 33 34 34 33 33 33 32 31 30
7 7 7 8 9 12 13 15 17 20 22 29 33 31 30 30 30 31 31 31 32 33 34 34 35 36 36 37 37 37 36 36 36 35 33 35 34 33 34 34 34 34 33 32 31
6 7 7 7 8 11 12 15 19 20 27 29 31 31 30 30 30 32 31 31 31 30 32 33 34 36 37 36 36 36 35 33 32 33 33 37 34 34 36 36 36 35 34 33 31
6 7 8 8 8 10 12 16 18 24 26 32 32 31 30 31 31 31 31 31 32 32 32 32 32 35 36 36 35 35 35 33 31 32 34 36 35 35 38 37 37 36 35 34 33
6 7 8 10 11 11 13 15 19 24 27 29 33 31 30 31 31 31 32 31 32 33 31 33 32 36 36 36 36 35 34 36 34 36 35 36 37 37 38 37 37 37 36 35 34
5 5 8 10 12 12 14 14 20 24 27 29 29 32 30 31 31 31 32 32 32 33 35 34 32 35 36 36 36 35 36 33 35 31 32 35 35 35 36 37 37 37 37 35 34
5 9 12 13 12 13 14 15 18 19 24 27 28 31 32 31 32 32 32 33 33 33 34 34 34 34 35 34 34 34 35 35 35 35 33 33 34 38 36 37 37 38 37 36 35
7 10 12 11 13 14 14 15 17 20 22 24 26 28 31 32 32 32 32 33 34 34 33 34 34 33 34 36 36 35 35 35 34 32 35 35 35 39 38 38 38 37 37 37 36
7 10 11 11 12 14 15 16 17 19 20 22 25 28 30 30 31 33 33 35 34 34 34 34 33 33 33 35 35 34 35 35 36 35 34 34 35 39 38 38 37 37 37 36 36
5 8 7 11 12 14 15 16 17 18 20 22 24 27 28 29 30 31 33 35 34 35 34 33 34 33 33 34 35 33 35 36 35 34 35 35 35 37 37 37 37 37 36 36 35
7 6 4 6 7 11 15 16 18 19 20 21 23 25 27 27 29 31 33 34 35 34 32 34 31 33 34 36 36 35 35 35 35 35 35 36 36 36 36 37 37 36 35 35 34
4 5 7 9 9 11 14 15 16 20 21 21 22 25 26 27 29 30 32 33 33 35 34 35 31 33 33 35 36 35 35 35 35 36 36 36 37 38 37 37 37 36 35 34 34
4 5 6 9 10 12 14 15 17 19 22 23 24 24 25 27 25 27 29 33 34 34 33 33 33 31 31 33 34 34 35 35 36 36 36 35 37 38 37 37 36 35 34 33 33
Height
1527 1527 1526 1525 1523 1522 1521 1520 1519 1517 1515 1513 1512 1511 1509 1507 1506 1504 1503 1504 1502 1500 1498 1496 1494 1491 1487 1483 1478 1475 1478 1480 1477 1484 1493 1492 1496 1505 1512 1518 1523 1524 1532 1541 1548
1527 1525 1524 1523 1523 1521 1520 1519 1518 1516 1515 1513 1511 1510 1508 1506 1504 1502 1502 1502 1501 1499 1498 1497 1491 1487 1479 1474 1485 1480 1472 1478 1477 1484 1488 1490 1498 1504 1512 1520 1528 1531 1538 1545 1549
1525 1524 1523 1522 1520 1520 1519 1518 1516 1515 1514 1512 1511 1510 1508 1506 1504 1498 1497 1499 1500 1499 1498 1496 1492 1486 1476 1468 1481 1471 1476 1477 1482 1485 1491 1496 1498 1497 1503 1518 1526 1532 1538 1545 1550
1525 1523 1521 1520 1519 1517 1517 1516 1515 1514 1513 1511 1510 1509 1508 1508 1505 1497 1498 1498 1499 1498 1497 1496 1488 1480 1471 1469 1473 1475 1476 1481 1486 1489 1493 1495 1498 1503 1506 1516 1526 1534 1540 1544 1550
1524 1522 1520 1518 1516 1515 1514 1514 1513 1512 1511 1510 1508 1508 1507 1505 1498 1498 1497 1497 1496 1496 1496 1495 1486 1477 1468 1469 1474 1477 1481 1485 1487 1492 1495 1499 1506 1512 1517 1523 1531 1537 1542 1546 1549
1522 1520 1518 1516 1514 1513 1511 1510 1510 1509 1509 1508 1507 1506 1506 1503 1495 1496 1496 1496 1495 1496 1496 1495 1488 1482 1474 1476 1489 1483 1485 1489 1492 1494 1497 1502 1507 1514 1523 1527 1534 1539 1542 1545 1548
1520 1518 1517 1514 1512 1510 1509 1507 1506 1506 1506 1506 1505 1504 1502 1493 1493 1494 1494 1494 1495 1494 1494 1493 1489 1485 1477 1475 1486 1486 1486 1490 1491 1492 1495 1497 1505 1517 1525 1530 1536 1538 1542 1546 1549
1519 1516 1514 1512 1510 1508 1506 1504 1503 1503 1503 1503 1503 1502 1494 1489 1490 1490 1492 1492 1492 1492 1492 1491 1489 1487 1484 1478 1488 1497 1502 1507 1486 1486 1491 1490 1517 1517 1524 1529 1533 1538 1542 1545 1548
1516 1514 1512 1509 1508 1505 1503 1501 1500 1500 1500 1500 1501 1500 1489 1483 1483 1484 1488 1489 1489 1490 1490 1490 1489 1487 1486 1484 1503 1529 1547 1519 1499 1477 1482 1485 1508 1513 1520 1525 1531 1536 1539 1543 1546
1514 1512 1509 1508 1505 1503 1500 1498 1497 1496 1496 1497 1497 1503 1481 1475 1478 1480 1482 1486 1486 1486 1487 1487 1486 1481 1475 1475 1523 1540 1534 1523 1512 1481 1475 1483 1496 1507 1513 1517 1525 1530 1534 1537 1541
1512 1509 1507 1505 1503 1501 1499 1497 1497 1494 1492 1486 1480 1476 1469 1471 1473 1474 1477 1482 1483 1482 1482 1481 1484 1483 1469 1473 1502 1492 1502 1504 1486 1470 1477 1499 1496 1499 1506 1509 1516 1523 1529 1533 1536
1510 1507 1504 1503 1502 1500 1500 1499 1498 1499 1488 1479 1476 1474 1471 1470 1470 1470 1473 1477 1478 1476 1477 1478 1481 1468 1462 1464 1483 1489 1488 1480 1471 1468 1474 1478 1488 1492 1499 1502 1508 1515 1523 1527 1532
1509 1505 1502 1501 1500 1500 1501 1499 1498 1497 1489 1469 1466 1464 1466 1467 1464 1463 1468 1469 1471 1473 1470 1474 1467 1463 1460 1463 1470 1463 1459 1467 1474 1471 1468 1470 1485 1489 1494 1497 1502 1508 1516 1521 1526
1508 1505 1501 1499 1502 1498 1498 1498 1498 1498 1487 1455 1445 1447 1457 1461 1458 1459 1461 1466 1466 1466 1465 1467 1457 1459 1458 1462 1461 1466 1459 1460 1466 1475 1490 1468 1503 1483 1485 1492 1496 1503 1511 1516 1522
1507 1504 1501 1503 1499 1497 1498 1498 1498 1497 1493 1421 1419 1431 1439 1447 1448 1451 1455 1460 1459 1458 1461 1463 1457 1456 1458 1454 1454 1461 1449 1458 1465 1471 1472 1473 1491 1480 1477 1490 1491 1496 1503 1510 1517
1506 1503 1500 1501 1500 1499 1499 1498 1498 1495 1474 1422 1403 1420 1431 1439 1445 1444 1450 1455 1458 1454 1453 1452 1450 1447 1450 1448 1450 1452 1457 1459 1464 1470 1492 1468 1479 1487 1477 1479 1481 1487 1495 1503 1511
1503 1501 1498 1498 1493 1497 1498 1498 1491 1473 1435 1418 1412 1416 1424 1430 1438 1436 1443 1446 1450 1463 1457 1451 1446 1444 1443 1450 1450 1454 1464 1493 1503 1499 1496 1452 1473 1471 1460 1464 1471 1479 1488 1497 1504
1499 1496 1492 1491 1492 1496 1499 1496 1477 1432 1429 1402 1401 1413 1420 1420 1428 1431 1435 1442 1442 1443 1450 1458 1467 1440 1439 1445 1456 1457 1459 1482 1514 1500 1479 1451 1474 1465 1450 1456 1463 1471 1480 1489 1499
1495 1492 1489 1488 1490 1493 1495 1478 1445 1428 1418 1408 1394 1409 1416 1413 1419 1425 1422 1431 1431 1432 1447 1449 1453 1436 1436 1440 1446 1456 1465 1453 1469 1455 1469 1461 1452 1446 1447 1454 1460 1464 1472 1482 1490
1492 1489 1479 1479 1483 1486 1482 1461 1442 1430 1415 1409 1409 1395 1411 1410 1414 1417 1415 1416 1423 1427 1428 1429 1453 1431 1434 1437 1443 1446 1446 1475 1464 1496 1499 1466 1463 1464 1451 1453 1457 1461 1465 1473 1482
1492 1485 1474 1473 1477 1475 1459 1454 1451 1437 1424 1421 1411 1399 1394 1399 1400 1405 1408 1408 1414 1420 1424 1423 1429 1437 1431 1439 1449 1452 1453 1454 1457 1461 1482 1488 1474 1432 1441 1445 1451 1456 1462 1467 1475
1491 1483 1472 1473 1471 1464 1457 1457 1454 1440 1430 1426 1416 1402 1387 1386 1393 1397 1400 1398 1405 1411 1420 1417 1423 1436 1431 1424 1432 1438 1447 1449 1467 1476 1456 1457 1461 1419 1431 1440 1444 1452 1458 1463 1470
1488 1477 1471 1472 1465 1457 1456 1451 1448 1444 1432 1427 1415 1401 1388 1389 1392 1385 1387 1389 1398 1403 1408 1413 1423 1437 1433 1425 1425 1437 1437 1441 1443 1448 1461 1471 1462 1424 1432 1438 1445 1450 1456 1462 1467
1490 1478 1473 1465 1460 1453 1445 1442 1440 1438 1433 1426 1416 1405 1396 1394 1382 1381 1378 1379 1387 1393 1403 1410 1415 1423 1433 1421 1422 1440 1434 1433 1440 1456 1454 1450 1447 1436 1435 1440 1447 1451 1456 1462 1467
1488 1483 1484 1474 1465 1458 1445 1438 1430 1427 1425 1426 1416 1404 1397 1400 1387 1377 1370 1375 1376 1385 1394 1402 1420 1414 1412 1406 1411 1423 1431 1427 1436 1436 1448 1438 1439 1443 1438 1441 1444 1451 1455 1463 1468
1492 1488 1480 1471 1468 1458 1438 1438 1431 1416 1417 1416 1413 1402 1398 1396 1386 1381 1373 1371 1376 1378 1386 1393 1413 1414 1419 1408 1405 1416 1420 1424 1426 1429 1432 1429 1431 1424 1429 1433 1441 1447 1453 1461 1467
1491 1487 1482 1466 1460 1449 1439 1434 1425 1418 1406 1409 1408 1406 1401 1396 1396 1386 1378 1370 1372 1375 1383 1393 1403 1418 1429 1412 1412 1422 1410 1416 1421 1420 1425 1436 1425 1421 1427 1432 1438 1445 1452 1459 1465
Wind_Speed
13 12 11 11 12 12 11 11 11 11 12 12 12 12 13 14 13 14 7 7 9 10 10 3 10 12 15 20 17 14 4 10 13 16 11 9 18 21 18 16 9 12 27 28 27
14 14 14 13 13 12 12 12 12 12 12 13 13 13 14 17 16 17 15 13 10 9 9 8 15 15 20 19 16 10 10 13 14 12 8 13 14 23 21 20 19 26 28 28 26
15 15 15 15 15 15 14 13 13 12 12 12 13 13 13 15 17 18 9 13 11 12 9 13 17 19 23 15 29 7 14 14 15 16 15 13 10 8 24 14 22 28 30 27 26
16 16 16 16 16 16 15 15 14 14 13 12 13 12 12 10 7 2 5 9 10 13 14 14 21 25 24 2 10 18 18 17 15 13 16 11 12 20 21 22 21 27 27 27 23
18 17 17 17 17 17 16 16 16 15 14 13 13 12 11 11 24 19 20 18 12 14 14 13 21 22 14 8 11 16 15 15 16 16 14 19 18 17 20 23 24 25 23 22 20
19 19 18 18 18 18 17 17 16 15 15 13 13 12 11 19 22 10 10 11 8 14 15 14 19 15 16 33 4 2 16 16 17 13 19 17 18 16 17 24 25 22 21 21 20
20 20 19 19 19 19 18 17 17 15 15 13 13 13 13 26 10 13 15 17 14 16 17 15 16 16 17 6 26 24 16 13 14 14 16 21 18 15 20 20 19 19 19 20 18
19 20 21 20 21 20 19 18 17 16 14 13 12 12 15 16 20 20 15 17 17 16 17 18 13 16 18 23 21 29 10 3 10 15 9 16 12 18 20 19 18 19 19 17 18
23 21 20 21 20 21 20 18 17 15 14 12 10 11 20 8 24 23 24 20 19 18 17 16 14 18 14 13 11 12 8 17 15 9 15 8 17 20 20 18 18 19 19 17 17
26 23 22 19 21 20 19 17 14 14 13 11 13 10 27 24 19 23 23 22 21 18 18 18 16 14 15 11 5 15 20 14 17 9 8 17 18 17 21 21 18 19 19 19 20
27 28 23 20 18 17 17 8 9 3 14 18 13 21 23 16 15 21 25 23 24 21 18 23 14 16 21 19 25 28 14 25 19 12 5 4 17 18 19 19 21 20 20 18 18
28 27 27 20 16 12 9 6 8 9 13 21 33 32 29 14 13 18 24 28 26 20 21 19 19 21 20 14 28 9 24 14 15 9 2 14 20 18 19 17 20 22 21 20 20
25 28 27 22 12 6 9 13 10 12 11 25 31 33 31 24 21 22 28 32 25 23 23 22 22 24 20 16 18 20 13 7 11 9 8 9 19 18 18 16 20 21 21 21 22
24 24 27 23 5 6 7 3 8 10 7 16 26 37 35 31 25 27 31 32 22 25 26 22 26 23 22 16 15 16 11 6 10 7 6 12 6 15 19 15 17 22 23 22 24
22 23 23 11 16 10 11 12 12 6 7 10 32 22 40 39 15 31 29 34 27 23 22 25 25 24 22 18 17 12 11 13 7 6 9 15 5 12 19 17 17 22 25 24 25
19 21 22 12 12 13 19 16 8 7 15 9 13 26 29 37 38 26 30 35 34 24 26 27 33 24 22 13 16 11 8 4 2 9 10 13 7 8 17 16 19 24 26 27 26
21 21 21 18 19 10 8 8 7 13 14 15 22 23 25 28 30 27 29 28 25 25 25 28 30 26 26 20 19 20 16 6 8 10 11 12 12 9 17 19 18 20 28 27 30
21 23 22 20 19 14 11 10 15 17 29 12 21 21 25 28 29 31 29 26 31 27 19 21 24 29 24 20 20 21 18 11 10 11 13 6 7 7 16 18 24 27 28 29 29
23 19 21 18 16 14 17 15 15 23 30 29 20 23 23 28 25 30 29 29 31 31 27 22 27 27 27 18 22 22 19 15 20 17 9 8 6 17 17 17 14 26 30 31 31
23 21 25 20 18 22 15 26 22 24 28 25 30 21 22 27 30 31 30 30 31 34 28 20 17 25 28 17 23 23 16 18 14 17 14 10 13 10 15 13 12 10 24 32 34
19 11 14 6 21 25 18 25 25 43 35 26 24 28 23 26 29 24 32 25 32 34 29 30 20 22 23 22 25 18 20 16 19 15 14 5 9 14 16 14 14 17 17 28 34
18 11 5 9 15 20 17 26 33 33 39 28 26 30 25 23 27 31 34 31 38 30 34 29 16 16 30 25 26 24 23 22 13 19 14 10 11 14 17 15 15 11 11 21 32
14 19 18 11 13 15 20 27 31 30 32 29 30 28 20 21 21 29 30 33 34 32 30 25 21 14 20 24 24 27 25 24 20 18 17 11 2 17 16 14 16 12 13 16 20
12 4 14 14 27 20 21 24 26 39 31 36 29 29 20 21 23 21 29 29 41 33 39 31 22 17 16 18 20 23 25 27 25 16 17 17 8 6 13 12 12 7 18 15 18
8 1 4 6 14 20 21 22 23 28 33 35 28 29 22 20 22 23 23 28 28 34 26 25 23 22 23 20 25 24 26 25 25 21 19 18 15 14 11 10 16 17 23 18 17
7 9 7 21 17 22 9 13 23 21 27 28 27 24 21 22 21 16 18 21 23 27 22 27 20 21 24 25 21 28 28 27 26 25 23 23 17 19 26 24 15 21 24 18 20
16 21 16 19 14 13 7 15 14 21 24 33 24 18 22 15 20 24 26 25 21 21 22 22 18 19 20 24 23 21 27 28 25 25 24 20 17 12 8 9 16 21 22 23 21
Wind_Direction
336 337 334 332 330 328 328 326 324 323 323 323 322 318 313 310 306 302 275 290 290 290 293 281 274 263 262 256 253 304 243 58 48 94 118 131 88 93 92 100 97 100 135 140 137
326 325 326 324 322 319 319 318 314 312 314 315 314 313 311 307 302 292 271 260 270 285 284 257 292 294 273 266 41 297 84 67 83 99 90 104 118 130 123 118 100 114 126 141 144
319 317 315 315 315 314 314 312 309 306 305 305 305 305 306 307 311 265 264 244 258 274 278 283 291 281 276 280 144 82 88 96 86 97 98 106 141 165 126 129 137 140 139 145 149
320 314 310 308 307 306 306 307 305 304 300 298 298 298 295 294 272 75 293 256 255 261 270 280 283 273 255 127 48 89 86 106 117 122 101 117 92 62 94 125 136 145 144 147 153
327 321 312 306 302 300 300 299 299 300 297 294 293 293 288 264 253 272 276 288 249 249 252 267 286 305 317 81 131 96 95 103 100 100 118 94 88 89 92 112 130 144 150 155 156
325 322 318 310 303 298 295 295 293 294 294 290 287 286 278 260 250 227 261 258 264 239 247 253 274 315 304 114 206 70 105 108 109 122 110 124 122 110 114 125 135 147 159 160 163
328 322 318 315 309 302 295 290 288 289 289 288 283 280 261 240 265 242 246 246 252 239 244 248 263 288 276 167 145 219 125 134 151 149 151 141 110 114 133 138 146 154 162 165 170
327 323 319 316 314 307 298 290 285 285 284 281 277 274 259 253 244 248 241 243 237 241 244 248 280 269 298 315 83 37 15 342 154 145 160 221 115 132 144 147 153 156 164 169 176
326 320 319 319 315 310 302 293 284 280 277 272 267 251 263 251 230 232 230 233 229 238 242 244 266 261 170 225 75 56 309 282 280 148 166 166 129 145 155 154 159 165 170 174 182
326 322 316 319 318 314 309 300 287 277 267 260 247 270 249 239 226 225 222 221 225 225 231 231 248 249 243 235 80 168 195 229 250 173 240 123 129 152 172 161 164 169 173 177 179
326 323 317 318 320 323 322 325 285 252 225 222 224 210 285 217 229 217 213 210 217 223 221 221 231 234 241 141 181 237 227 206 221 171 133 325 146 155 177 174 163 167 172 182 177
325 322 320 318 320 327 328 303 2 321 293 249 247 252 257 234 210 217 202 203 208 216 217 224 223 230 242 181 174 123 251 175 138 160 239 169 152 157 174 185 166 170 171 179 177
321 319 321 321 325 9 309 288 304 322 276 269 242 239 233 236 230 214 207 203 206 215 212 219 216 233 234 208 212 232 210 118 128 168 242 171 151 153 172 179 161 173 171 177 175
323 318 319 326 310 289 326 3 328 320 275 257 224 233 225 225 224 228 204 204 211 214 216 217 231 219 236 221 211 243 105 212 134 218 215 199 171 166 164 181 166 171 171 179 174
319 320 314 340 310 294 327 327 320 291 267 233 216 202 201 206 203 213 208 205 214 208 214 214 228 220 232 223 200 247 193 169 208 261 242 186 194 178 164 181 178 177 174 180 180
317 317 314 315 279 282 298 305 293 230 233 255 170 183 187 202 216 200 213 204 214 219 217 226 219 233 220 222 235 221 265 55 249 258 250 240 145 187 173 180 179 182 176 177 181
315 308 300 296 270 261 317 301 217 228 221 231 157 183 190 195 204 220 198 194 208 218 215 217 230 222 232 225 206 233 211 196 224 231 242 229 174 154 184 176 180 177 175 180 175
313 305 298 279 267 264 268 249 230 211 231 217 181 194 205 200 202 213 192 201 211 212 216 211 218 225 220 223 215 225 230 229 217 227 234 200 166 138 160 169 176 176 179 176 181
319 314 288 267 251 230 226 224 221 232 199 244 198 189 205 211 198 205 204 208 200 211 216 205 219 219 217 198 230 215 230 244 246 246 268 166 180 158 158 161 169 177 174 177 179
324 309 280 249 221 214 224 234 229 240 256 225 250 203 208 207 201 204 214 201 205 210 217 225 212 218 216 197 222 238 212 228 247 261 273 235 189 207 167 160 171 194 179 175 177
323 291 286 280 205 216 229 234 238 260 265 268 273 259 219 203 214 205 216 201 209 202 214 228 212 209 218 201 217 217 236 215 241 241 245 188 256 194 164 177 196 188 196 178 178
297 277 305 219 216 228 237 239 251 260 262 264 279 281 249 221 209 217 211 208 199 208 208 223 228 222 210 200 212 212 222 230 224 242 264 293 309 158 162 175 182 170 204 194 181
288 287 266 230 254 234 246 242 245 248 256 265 268 272 262 271 243 217 218 208 210 208 201 211 232 227 222 204 194 218 219 223 228 237 249 247 176 155 165 156 157 167 179 189 189
292 287 317 245 242 259 252 242 233 242 253 260 263 273 254 260 266 251 217 218 203 203 213 208 226 233 226 215 186 202 221 212 224 220 236 235 157 185 147 134 146 182 159 187 185
297 164 266 319 320 310 252 266 244 233 238 246 259 256 251 251 255 250 220 209 207 211 197 208 217 230 238 233 198 199 220 218 217 218 228 234 185 202 153 177 165 184 155 174 181
291 329 282 295 277 274 274 270 274 241 228 230 242 248 251 251 262 257 236 219 221 202 199 205 213 226 230 242 234 204 204 224 214 228 237 237 250 170 175 177 177 173 152 165 176
319 318 314 295 289 302 289 259 250 271 226 230 232 244 252 278 337 314 312 253 222 214 189 204 212 205 227 236 245 241 205 205 228 215 228 236 247 256 139 156 164 143 158 175 180